Погода Правая Хетта

Погода Правая Хетта : погода сейчас, прогноз погоды и архив. Всё, что Вы хотите узнать о погоде Правая Хетта!

Хотите узнать прогноз погоды Правая Хетта? Тогда Вам сюда: Погода Правая Хетта

Поиск расширенной информации на нашем сайте:

Другие новости

Новости СМИ2

Главная страница сайта

Новости сайта

03.07.2017

Напоминаем, что на нашем специализированном сайте Метеоцентр.Азия вы можете получить высокодетализированные автоматические прогнозы погоды по пунктам России, СНГ и мира в авиационном формате (включающие направление и скорость ветра, видимость, явления погоды, количество и форму облачности, нижнюю и верхнюю границу облачности).


Погода Правая Хетта - сегодня

Время (UTC), дата Ветер
(°,м/с) 
Видим.   Явления Облачность Т
(°С)
Тd
(°С)
f(%) Тe
(°С)
Pmin
(гПа)
dP
(гПа)
Po
(мм)
O2
(г/м3)
Тmin Tmax R s Состояние
почвы
18 14.08.18 250 (З) 20000 м    3/3 600 м кучево-дожд. 
[Cb cap]
+14 +10.9 82 +17  1002.9  1.9  748  284           
21 14.08.18 230 (ЮЗ) 20000 м    4/3 600 м средняя 
[Sc diur, vesp|Ac cuf]
+10 +9.5 97 +12  1004.5  1.5  749  289           
00 15.08.18 250 (З) 20000 м    8/0 верхняя 
[Ci fib]
+11 +9.8 92 +12  1005.8  1.4  750  289           
06 15.08.18 270 (З) 20000 м    8/5 600 м средняя, верхняя 
[Cu Sc|Ac trans|Cc]
+17.7 +11.2 66 +21  1007.8  751  282           
09 15.08.18 240 (ЮЗ) 20000 м    8/5 600 м верхняя 
[Cu Sc|Ci sp]
+20.6 +10.6 53 +23  1007.9  751  280           
12 15.08.18 290 (З) 20000 м    10/4 600 м средняя, верхняя 
[Cu Sc|Ac cuf|Cs]
+18.5 +12 66 +24  1007.9  0.1  751  281           
15 15.08.18 020 (С) 20000 м  слаб. дождь  10/8 300 м средняя 
[St|As op]
+13.9 +12.5 91 +20  1007.8  0.1  751  286    +21.1  0.8     
18 15.08.18 020 (С) 10 км  слаб. ливневой дождь  10/9 300 м кучево-дожд., средняя 
[Cb cap|As trans]
+11.8 +11.4 97 +16  1007.9  751  288           
21 15.08.18 350 (С) 20000 м  слаб. ливневой дождь  10/9 600 м кучево-дожд., средняя 
[Cb cap|As trans]
+10.5 +10.5 100 +14  1007.8  -0.2  751  289           
00 16.08.18 310 (СЗ) 20000 м  {ливн. осадки}  8/6 600 м средняя, верхняя 
[Sc|Ac As|Ci fib]
+9.6 +9.6 100 +12  1008.7  0.9  752  291           
06 16.08.18 300 (СЗ) 20000 м    10/9 300 м кучево-дожд., средняя 
[Cb cap|Ac cuf]
+16.1 +8.7 61 +17  1009.3  0.1  752  285           
09 16.08.18 200 (Ю) 20000 м    10/8 300 м кучево-дожд., средняя 
[Cb cap|Ac cuf]
+16.2 +8.8 61 +18  1009.5  0.2  752  285           
12 16.08.18 290 (З) 20000 м    10/9 300 м кучево-дожд., средняя 
[Cb cap|Ac cuf]
+16.5 +7.7 56 +17  1009.4  752  285           
18 16.08.18 тихо ()   20000 м    8/0 средняя, верхняя 
[Ac cuf|Ci fib]
+10.2 +9 92 +10  1009.6  752  291           
21 16.08.18 280 (З) 20000 м    4/0 средняя, верхняя 
[Ac trans|Ci fib]
+5.8 +5.8 100 +7  1009.7  752  296           
00 17.08.18 270 (З) 20000 м    3/0 верхняя 
[Ci fib]
+6.5 +6.5 100 +7  1010  0.3  753  295           
06 17.08.18 260 (З) 20000 м    8/5 600 м кучево-дожд., средняя 
[Cb cap|Ac cuf]
+16.1 +7.2 56 +17  1010.1  0.1  753  285           
09 17.08.18 020 (С) 20000 м  в посл. час ливневой дождь  9/8 300 м кучево-дожд., средняя 
[Cb cap|Ac cuf]
+13.3 +10.2 81 +16  1010.6  0.4  753  288           
12 17.08.18 340 (С) 20000 м  {ливн. осадки}  9/6 600 м кучево-дожд., средняя 
[Cb cap|Ac cuf]
+14.6 +9.2 70 +16  1010.7  0.1  753  287           
18 17.08.18 310 (СЗ) 20000 м    8/4 300 м средняя, верхняя 
[Cu hum|Ac cuf|Ci fib]
+10.1 +9.8 98 +12  1011.6  0.3  754  291           
21 17.08.18 350 (С) 20000 м    6/0 средняя, верхняя 
[Ac cuf|Ci fib]
+7.6 +7.6 100 +9  1011.9  0.2  754  294           
00 18.08.18 060 (СВ) 0050 м  туман  ?/?  
+6.2 +6.2 100 +7  1012.9  755  296           
03 18.08.18 060 (СВ) 20000 м  {туман}  10/5 300 м средняя 
[St|Ac und]
+10.2 +10.2 100 +12  1013.6  0.8  755  292  +5.3         
06 18.08.18 040 (СВ) 20000 м  {туман}  10/8 300 м кучево-дожд., средняя, верхняя 
[Cb cap|Ac cuf|Ci fib]
+15.1 +8.4 64 +16  1013.7  0.2  756  287           
09 18.08.18 060 (СВ) 20000 м  {ливн. осадки}  9/8 300 м кучево-дожд., средняя, верхняя 
[Cb cap|Ac cast|Ci fib]
+15.4 +7.8 60 +16  1014.2  0.5  756  287           
Время (UTC), дата Ветер
(°,м/с) 
Видим.   Явления Облачность Т
(°С)
Тd
(°С)
f(%) Тe
(°С)
Pmin
(гПа)
dP
(гПа)
Po
(мм)
O2
(г/м3)
Тmin Tmax R s Состояние
почвы

Для получения пояснительной информации подведите курсор к названию столбца.

ПОГОДА Правая Хетта - архив

Всё, что Вы хотите узнать о погоде Правая Хетта - удобно и подробно!

Выберите нужную дату (начиная с 1 января 2015* года) и нажмите кнопку "Найти".
Будут отображены архивные сводки погоды по пункту Правая Хетта, начиная с указанной даты.


Отображать данные в формате CSV (для использования в таблицах Excel)


Внимание! Наш архив погоды предназначен исключительно для личного некоммерческого использования в познавательных целях. Если Вам необходимы официальные справки о состоянии погоды (для производственных, юридических, коммерческих и т.п. целей), обращайтесь в органы Росгидромета.

*Примечание: данная дата относится к архиву по метеостанциям СССР (Россия, СНГ, Балтия).
Архив по метеостанциям Зарубежной Европы и Азии (кроме Китая) хранится 10 дней, по другим регионам земного шара (Китай, Африка, Америка, Австралия, Океания) - 1 день.

Правая Хетта - район местоположения метеостанции


Название, широта, долгота, высота метеостанции:
Правая Хетта 65.9°ш. 74.5°д. 54 м над ур. моря [Российская Федерация]

Дополнительная информация

В oтличие oт бoльшинства пoгoдных сайтoв мы публикуем пoдрoбную метеoинфoрмацию в детальнoм прoфессиoнальнoм фoрмате.

Характеристики температуры и влажнoсти вoздуха измеряются на высoте 2 м в тени вдали oт зданий и деревьев.
Скoрoсть ветра измеряется на высoте 10 м (на урoвне рoста челoвека скoрoсть ветра ниже в 1.5-2 раза). Если метеoстанция нахoдится в гoрoде или в лесу, тo скoрoсть ветра занижена на 2-4 м/с пo сравнению с oткрытым местoм. Скoрoсть ветра над акватoриями крупных рек и oзёр, а также на вершинах хoлмoв на 2-5 м/с выше, чем в oбычных услoвиях.
Атмoсфернoе давление в разных тoчках местнoсти мoжет значительнo oтличаться oт давления на метеoстанции, в зависимoсти oт услoвий рельефа (при пoдъёме на 10 м давление пoнижается примернo на 1 мм рт.ст.).